DELTA 1 DEB, 7892

Orbit data source: Space-Track

DELTA 1 DEB, 7892 is space debris in SSO originally from a launch on Sun, 23 Jul 1972 UTC launched from the Air Force Western Test Range (AFWTR). Debris objects in space refer to the collection of defunct objects orbiting the Earth. Examples of debris include non-operational satellites, rocket bodies, and fragments generated from explosions, collisions, or faulty payload assembly.

Loading next visibility...
Identifier
7892, 1972-058BJ
Orbit
SSO
Country
Flag of USUS
Related business
Manufacturer
Unknown
Mission
Spacecraft
Bus & Motor
Unknown
Mass
Unknown
Launch date (UTC)
1972-07-23 (53 years ago)
Launch vehicle
Unknown
Launch site
Air Force Western Test Range (AFWTR)
Object type
Payload
Rocket body
Debris
Shape & HBR
Unknown shape, 0.1 m
Radar Cross Section
Small (<0.1 m²)

Expand to show TLE details & history
Last TLE update: 7 hours ago

TLE from 7 hours ago
0 DELTA 1 DEB
1  7892U 72058BJ  25300.38105301  .00002812  00000-0  42070-3 0  9998
2  7892  98.5797 233.7701 0099765  96.6229 264.6344 14.72244492650881
Epoch: 2025-10-27T09:08Z
TLE epoch observation values (Epoch: 2025-10-27T09:08:42.980Z)
Latitude
-0.00002°
Longitude
60.6073°
Altitude
664.157 km
Speed
7.521 km/s
True Right ascension
15h 35m 04s
True Declination
0° 00' 00"
Sunlit
Object was in daylight at epoch
Visualization orbit readout
Latitude
Unknown
Longitude
Unknown
Altitude
Unknown
Speed
Unknown
Apparent Right ascension
Unknown
Apparent Declination
Unknown
Sunlit
N/A
Visualization observer readout
Local Sidereal Time
11:20:47
Azimuth
Unknown
Elevation
Unknown
Doppler factor
Unknown
Orbital elements
Apogee altitude
721.12 km
Perigee altitude
580.868 km
Semi-major axis
7,029.131 km
Eccentricity
0.00998
Inclination
98.5797°
RAAN
233.7701°
Arg. of periapsis
96.6229°
True anomaly
263.49759°
Mean anomaly
264.6344°
Eccentric anomaly
264.06585°
Mean motion
3.68291 °/min
Orbital period
97.75 mins
BSTAR
0.0004207
Loading maneuver chart data...
Computing Atmospheric mass density...
Loading historical data...
Loading historical data...
Loading historical data...
Loading historical data...
Loading historical data...
Loading historical data...
Loading historical data...

Documentation

Showing up to 5 results
|